User: anonymous   Login
Location: Unspecified
(0.0000°N, 0.0000°E)
Time: 15:29:12
(UTC+00:00)
Language:

CHUBUSAT 3 - Orbit

View from above orbital plane
View from above orbital plane
View from above satellite
View from above satellite

Ground track
Ground track

The orbit data is extracted from the following two-line orbital elements,

1 41339U 16012C   18109.30872765  .00000349  00000-0  20416-4 0  9990
2 41339  31.0117 326.4019 0013904 218.4273 141.5384 15.00146379118972
Epoch (UTC): 19 April 2018 07:24:34
Eccentricity: 0.0013904
inclination: 31.0117°
perigee height: 557 km
apogee height: 576 km
right ascension of ascending node: 326.4019°
argument of perigee: 218.4273°
revolutions per day: 15.00146379
mean anomaly at epoch: 141.5384°
orbit number at epoch: 11897

The dashed part of the orbit path shows where the satellite is in the earth's shadow,  

DLR